Flag for Chile Weather past 2 weeks in Temuco, Chile

Now
55 °F

Passing clouds.


Feels Like: 55 °F
Forecast: 36 / 60 °F
Wind: 5 mph from South

Location: Concepcion Airport

Current Time: Apr 1, 2015 at 12:46:31 AM

Latest Report: Apr 1, 2015 at 12:00 AM


Visibility: N/A

Pressure: 30.04 "Hg

Humidity: 77%

Dew point: 48 °F

Location of TemucoLocation

Historic Weather in Temuco — Graph

°F

Temuco temperature yesterday

Maximum temperature yesterday: 70 °F (at 3:00 PM)
Minimum temperature yesterday: 43 °F (at 8:00 AM)
Average temperature yesterday: 57 °F

Past Weeks' High & Low Weather Summary

 TemperatureHumidityPressure
High82 °F (Mar 20, 3:00 PM)100% (Mar 17, 6:00 AM)30.21 "Hg (Mar 17, 6:00 AM)
Low36 °F (Mar 22, 2:00 PM)30% (Mar 21, 5:00 PM)29.86 "Hg (Mar 25, 5:00 PM)
Average62 °F75%30.02 "Hg
* Reported Midnight between Mar 16 and Mar 17 — Mar 31 11:00 PM, Temuco, Weather by CustomWeather, © 2015

Note: Actual official high and low records may vary slightly from our data, if they occured in-between our weather recording intervals... More about our weather records

Advertising

Temuco weather history for previous 24 hours

 ConditionsComfort  
Time TempWeatherWind HumidityBarometerVisibility
11:00 PM
Tue, Mar 31
57 °FClear.6 mph72%30.04 "Hg10 mi
10:00 PM59 °FClear.8 mph68%30.04 "Hg10 mi
9:00 PM61 °FClear.10 mph68%30.04 "Hg10 mi
7:00 PM66 °FClear.15 mph56%30.01 "Hg10 mi
6:00 PM68 °FSunny.16 mph53%30.04 "Hg10 mi
5:00 PM68 °FSunny.18 mph53%30.04 "Hg10 mi
4:00 PM70 °FSunny.15 mph43%30.07 "Hg10 mi
3:00 PM70 °FSunny.13 mph38%30.09 "Hg10 mi
2:00 PM68 °FSunny.13 mph46%30.12 "Hg10 mi
1:00 PM66 °FPassing clouds.10 mph46%30.12 "HgN/A
12:00 PM63 °FSunny.13 mph52%30.15 "Hg10 mi
11:00 AM59 °FPassing clouds.7 mph55%30.18 "HgN/A
10:00 AM52 °FSunny.6 mph72%30.18 "Hg10 mi
8:00 AM43 °FSunny.6 mph87%30.18 "Hg10 mi
7:00 AM46 °FClear.No wind87%30.18 "Hg10 mi
6:00 AM46 °FClear.6 mph82%30.18 "Hg10 mi
5:00 AM46 °FClear.2 mph87%30.18 "Hg10 mi
4:00 AM46 °FClear.5 mph82%30.21 "Hg10 mi
3:00 AM46 °FClear.5 mph87%30.21 "Hg10 mi
2:00 AM48 °FClear.3 mph87%30.21 "Hg10 mi
12:00 AM54 °FClear.6 mph72%30.21 "Hg10 mi
Weather by CustomWeather, © 2015

See weather overviewHow to use our weather pages